Oxford, CT

12:46 PM EDT on July 23, 2017 (GMT -0400)
Waterbury-Oxford

Weather History for KOXC - November, 2014

Change the Weather History Date:

Saturday, November 22, 2014

  Actual Average Record
Temperature  
Mean Temperature 29 °F -  
Max Temperature 39 °F 45 °F 60 °F (2007)
Min Temperature 19 °F 31 °F 17 °F (2008)
Degree Days  
Heating Degree Days 36    
Moisture  
Dew Point 11 °F    
Average Humidity 47    
Maximum Humidity 58    
Minimum Humidity 33    
Precipitation  
Precipitation 0.00 in - - ()
Sea Level Pressure  
Sea Level Pressure 30.33 in    
Wind  
Wind Speed 4 mph (WSW)    
Max Wind Speed 12 mph    
Max Gust Speed 17 mph    
Visibility 10 miles    
Events      
Averages and records for this station are not official NWS values.
T = Trace of Precipitation, MM = Missing Value Source: NWS Daily Summary

Daily Weather History Graph

Daily Weather History Graph

Search for Another Location

Airport or City:

Trip Planner

Search our weather history database for the weather conditions in past years. The results will help you decide how hot, cold, wet, or windy it might be!

Date:

Astronomy

Nov. 22, 2014 Rise Set
Actual Time 6:49 AM EST 4:27 PM EST
Civil Twilight 6:19 AM EST 4:57 PM EST
Nautical Twilight 5:45 AM EST 5:31 PM EST
Astronomical Twilight 5:12 AM EST 6:04 PM EST
Moon 6:42 AM EST (11/22) 4:56 PM EST (11/22)
Length of Visible Light 10h 38m
Length of Day
9h 38m
New Moon, 0% of the Moon is Illuminated
Nov 22
New Moon
Nov 29
First Quarter
Dec 6
Full
Dec 14
Last Quarter
Dec 21
New

Hourly Weather History & Observations

Time (EST) Temp. Windchill Dew Point Humidity Pressure Visibility Wind Dir Wind Speed Gust Speed Precip Events Conditions
12:15 AM 23.0 °F - 6.8 °F 50% 30.44 in 10.0 mi Calm Calm - N/A   Clear
12:35 AM 21.2 °F - 6.8 °F 54% 30.44 in 10.0 mi Calm Calm - N/A   Clear
12:55 AM 21.2 °F 14.9 °F 6.8 °F 54% 30.44 in 10.0 mi WSW 4.6 mph - N/A   Clear
1:15 AM 21.2 °F 14.9 °F 6.8 °F 54% 30.44 in 10.0 mi WSW 4.6 mph - N/A   Clear
1:35 AM 21.2 °F 16.4 °F 6.8 °F 54% 30.43 in 10.0 mi WSW 3.5 mph - N/A   Clear
1:55 AM 23.0 °F 18.4 °F 6.8 °F 50% 30.43 in 10.0 mi SW 3.5 mph - N/A   Clear
2:15 AM 21.2 °F 16.4 °F 6.8 °F 54% 30.44 in 10.0 mi WSW 3.5 mph - N/A   Clear
2:35 AM 21.2 °F - 6.8 °F 54% 30.43 in 10.0 mi Calm Calm - N/A   Clear
2:55 AM 23.0 °F - 6.8 °F 50% 30.43 in 10.0 mi Calm Calm - N/A   Clear
3:15 AM 21.2 °F - 6.8 °F 54% 30.43 in 10.0 mi Calm Calm - N/A   Clear
3:35 AM 21.2 °F 16.4 °F 6.8 °F 54% 30.43 in 10.0 mi SSW 3.5 mph - N/A   Clear
3:55 AM 21.2 °F 16.4 °F 6.8 °F 54% 30.42 in 10.0 mi SW 3.5 mph - N/A   Clear
4:15 AM 21.2 °F 14.9 °F 6.8 °F 54% 30.43 in 10.0 mi WSW 4.6 mph - N/A   Clear
4:35 AM 21.2 °F 16.4 °F 6.8 °F 54% 30.42 in 10.0 mi WSW 3.5 mph - N/A   Clear
4:55 AM 19.4 °F 12.8 °F 6.8 °F 58% 30.42 in 10.0 mi WSW 4.6 mph - N/A   Clear
5:15 AM 19.4 °F 14.3 °F 6.8 °F 58% 30.43 in 10.0 mi WSW 3.5 mph - N/A   Clear
5:35 AM 21.2 °F 16.4 °F 6.8 °F 54% 30.42 in 10.0 mi SW 3.5 mph - N/A   Clear
5:52 AM 23.0 °F - 6.8 °F 50% 30.42 in 10.0 mi Calm Calm - N/A   Clear
5:55 AM 21.2 °F 16.4 °F 6.8 °F 54% 30.42 in 10.0 mi SW 3.5 mph - N/A   Clear
6:52 AM 21.2 °F - 6.8 °F 54% 30.43 in 10.0 mi Calm Calm - N/A   Clear
7:52 AM 23.0 °F - 8.6 °F 54% 30.41 in 10.0 mi Calm Calm - N/A   Clear
8:52 AM 28.4 °F 23.3 °F 10.4 °F 47% 30.40 in 10.0 mi Variable 4.6 mph - N/A   Scattered Clouds
9:52 AM 30.2 °F 24.3 °F 10.4 °F 44% 30.39 in 10.0 mi West 5.8 mph - N/A   Scattered Clouds
10:52 AM 32.0 °F 25.6 °F 10.4 °F 41% 30.35 in 10.0 mi West 6.9 mph - N/A   Scattered Clouds
11:50 AM 35.6 °F 29.2 °F 10.4 °F 35% 30.31 in 10.0 mi West 8.1 mph 17.3 mph N/A   Clear
12:50 PM 39.2 °F 33.0 °F 12.2 °F 33% 30.28 in 10.0 mi SW 9.2 mph 17.3 mph N/A   Clear
1:50 PM 39.2 °F 32.0 °F 12.2 °F 33% 30.25 in 10.0 mi SSW 11.5 mph 17.3 mph N/A   Clear
2:50 PM 39.2 °F 32.0 °F 12.2 °F 33% 30.23 in 10.0 mi SW 11.5 mph 17.3 mph N/A   Clear
3:45 PM 37.4 °F 30.8 °F 10.4 °F 33% 30.22 in 10.0 mi SW 9.2 mph - N/A   Overcast
4:50 PM 37.4 °F 32.1 °F 12.2 °F 36% 30.22 in 10.0 mi WSW 6.9 mph - N/A   Overcast
5:50 PM 37.4 °F 32.1 °F 12.2 °F 36% 30.20 in 10.0 mi WSW 6.9 mph - N/A   Overcast
6:50 PM 37.4 °F 32.1 °F 15.8 °F 41% 30.20 in 10.0 mi WSW 6.9 mph - N/A   Overcast
7:50 PM 37.4 °F 31.4 °F 15.8 °F 41% 30.17 in 10.0 mi WSW 8.1 mph 17.3 mph N/A   Overcast
9:15 PM 39.2 °F 33.6 °F 17.6 °F 42% 30.17 in 10.0 mi WSW 8.1 mph - N/A   Overcast
9:35 PM 39.2 °F 34.2 °F 17.6 °F 42% 30.17 in 10.0 mi WSW 6.9 mph - N/A   Scattered Clouds
9:55 PM 39.2 °F 33.6 °F 17.6 °F 42% 30.17 in 10.0 mi WSW 8.1 mph - N/A   Clear
10:15 PM 39.2 °F 35.9 °F 17.6 °F 42% 30.16 in 10.0 mi WSW 4.6 mph - N/A   Mostly Cloudy
10:35 PM 39.2 °F 33.6 °F 17.6 °F 42% 30.16 in 10.0 mi WSW 8.1 mph - N/A   Mostly Cloudy
10:55 PM 39.2 °F 34.2 °F 17.6 °F 42% 30.16 in 10.0 mi WSW 6.9 mph - N/A   Partly Cloudy
11:15 PM 39.2 °F 35.0 °F 17.6 °F 42% 30.16 in 10.0 mi WSW 5.8 mph - N/A   Scattered Clouds
11:35 PM 39.2 °F 34.2 °F 17.6 °F 42% 30.16 in 10.0 mi WSW 6.9 mph - N/A   Scattered Clouds
11:55 PM 39.2 °F 34.2 °F 17.6 °F 42% 30.16 in 10.0 mi WSW 6.9 mph - N/A   Clear